UAE63Q OMDB-ENGM

Flight info

Callsign UAE63Q
Flight time N/A
Altitude 40000
Route RIDAP M557 TUMAK L602 GADSI M860 NINVA UM860 ODALI UL852 NEGEM DCT ARGES DCT KENIN DCT UNBEK DCT PENOR DCT KSD Z259 ESEBA
Aircraft A359/H-SDE2E3GHIJ3J4J5LM1ORWXY/LB1D1

Departure

Time 2026-04-24 08:11
Airport Dubai International Airport (OMDB)

Arrival

Time N/A
Airport Oslo-Gardermoen International Airport (ENGM)
Time Latitude Longitude Altitude Speed Heading
2026-04-24 07:43 25.25136 55.35479 27 ft 0 kts 31°
2026-04-24 07:57 25.25131 55.35475 27 ft 4 kts 31°
2026-04-24 07:57 25.25108 55.35460 27 ft 4 kts 31°
2026-04-24 07:58 25.25086 55.35446 26 ft 4 kts 10°
2026-04-24 07:58 25.25063 55.35450 25 ft 4 kts 322°
2026-04-24 07:58 25.25044 55.35471 25 ft 4 kts 304°
2026-04-24 07:58 25.25033 55.35491 27 ft 4 kts 301°
2026-04-24 07:59 25.25022 55.35511 26 ft 0 kts 301°
2026-04-24 08:01 25.25029 55.35498 47 ft 5 kts 301°
2026-04-24 08:02 25.25058 55.35445 27 ft 11 kts 301°
2026-04-24 08:02 25.25105 55.35361 27 ft 14 kts 301°
2026-04-24 08:02 25.25161 55.35268 27 ft 12 kts 315°
2026-04-24 08:02 25.25213 55.35195 27 ft 13 kts 304°
2026-04-24 08:03 25.25264 55.35108 27 ft 14 kts 302°
2026-04-24 08:03 25.25320 55.35007 27 ft 16 kts 302°
2026-04-24 08:03 25.25394 55.34907 27 ft 17 kts 330°
2026-04-24 08:03 25.25501 55.34921 27 ft 16 kts 31°
2026-04-24 08:04 25.25604 55.34990 27 ft 18 kts 31°
2026-04-24 08:04 25.25684 55.35065 27 ft 9 kts 85°
2026-04-24 08:04 25.25664 55.35135 27 ft 10 kts 80°
2026-04-24 08:04 25.25720 55.35182 27 ft 11 kts 29°
2026-04-24 08:05 25.25794 55.35231 26 ft 14 kts 31°
2026-04-24 08:05 25.25882 55.35290 27 ft 16 kts 31°
2026-04-24 08:05 25.25975 55.35362 28 ft 17 kts 50°
2026-04-24 08:05 25.26010 55.35489 28 ft 19 kts 94°
2026-04-24 08:06 25.25950 55.35624 28 ft 21 kts 122°
2026-04-24 08:06 25.25869 55.35770 28 ft 22 kts 122°
2026-04-24 08:06 25.25782 55.35923 28 ft 25 kts 122°
2026-04-24 08:06 25.25688 55.36092 29 ft 27 kts 122°
2026-04-24 08:07 25.25586 55.36273 29 ft 28 kts 122°
2026-04-24 08:07 25.25478 55.36464 28 ft 30 kts 122°
2026-04-24 08:07 25.25365 55.36666 28 ft 32 kts 122°
2026-04-24 08:07 25.25252 55.36864 28 ft 29 kts 122°
2026-04-24 08:08 25.25140 55.37057 29 ft 30 kts 123°
2026-04-24 08:08 25.25035 55.37252 29 ft 29 kts 122°
2026-04-24 08:08 25.24926 55.37446 30 ft 30 kts 122°
2026-04-24 08:09 25.24709 55.37830 28 ft 27 kts 122°
2026-04-24 08:09 25.24678 55.37956 29 ft 14 kts 57°
2026-04-24 08:09 25.24749 55.38014 31 ft 12 kts 34°
2026-04-24 08:09 25.24813 55.38009 31 ft 10 kts 309°
2026-04-24 08:10 25.24856 55.37936 31 ft 22 kts 302°
2026-04-24 08:10 25.25063 55.37564 33 ft 89 kts 301°
2026-04-24 08:10 25.25491 55.36789 30 ft 145 kts 301°
2026-04-24 08:10 25.26080 55.35747 456 ft 156 kts 303°
2026-04-24 08:11 25.26631 55.34735 1092 ft 158 kts 306°
2026-04-24 08:11 25.27248 55.33638 1372 ft 178 kts 304°
2026-04-24 08:11 25.27929 55.32418 1595 ft 200 kts 304°
2026-04-24 08:11 25.28698 55.31042 1896 ft 219 kts 303°
2026-04-24 08:12 25.29513 55.29572 2404 ft 228 kts 302°
2026-04-24 08:12 25.30381 55.28100 3116 ft 229 kts 305°
2026-04-24 08:12 25.31313 55.26644 3711 ft 233 kts 306°
2026-04-24 08:12 25.32267 55.25173 4320 ft 237 kts 306°
2026-04-24 08:13 25.33232 55.23678 4907 ft 240 kts 305°
2026-04-24 08:13 25.34196 55.22179 5486 ft 242 kts 304°
2026-04-24 08:13 25.35161 55.20639 6080 ft 244 kts 300°
2026-04-24 08:13 25.35786 55.18905 6610 ft 245 kts 276°
2026-04-24 08:14 25.35858 55.16970 6879 ft 261 kts 266°
2026-04-24 08:14 25.35768 55.14915 7246 ft 272 kts 265°
2026-04-24 08:14 25.35668 55.12836 7849 ft 275 kts 265°
2026-04-24 08:14 25.35577 55.10724 8532 ft 276 kts 266°
2026-04-24 08:15 25.35492 55.08599 9231 ft 278 kts 266°
2026-04-24 08:15 25.35410 55.06457 9939 ft 279 kts 266°
2026-04-24 08:15 25.35328 55.04283 10411 ft 290 kts 266°
2026-04-24 08:15 25.35242 55.01985 10662 ft 308 kts 266°
2026-04-24 08:16 25.35151 54.99550 10892 ft 325 kts 266°
2026-04-24 08:16 25.35057 54.96990 11120 ft 341 kts 266°
2026-04-24 08:16 25.34958 54.94309 11338 ft 355 kts 266°
2026-04-24 08:16 25.34919 54.91577 11669 ft 364 kts 272°
2026-04-24 08:17 25.35394 54.88806 12142 ft 370 kts 284°
2026-04-24 08:17 25.36160 54.86061 12657 ft 374 kts 286°
2026-04-24 08:17 25.36965 54.83308 13170 ft 377 kts 286°
2026-04-24 08:17 25.37770 54.80544 13758 ft 378 kts 286°
2026-04-24 08:18 25.38573 54.77765 14231 ft 380 kts 286°
2026-04-24 08:18 25.39365 54.75011 14737 ft 381 kts 286°
2026-04-24 08:18 25.40166 54.72213 15253 ft 382 kts 286°
2026-04-24 08:18 25.40971 54.69408 15761 ft 383 kts 286°
2026-04-24 08:19 25.41774 54.66591 16261 ft 384 kts 286°
2026-04-24 08:19 25.42577 54.63765 16762 ft 386 kts 286°
2026-04-24 08:19 25.43384 54.60929 17266 ft 387 kts 286°
2026-04-24 08:19 25.44210 54.58091 17770 ft 389 kts 287°
2026-04-24 08:20 25.45055 54.55237 18243 ft 390 kts 287°
2026-04-24 08:20 25.45909 54.52373 18632 ft 393 kts 287°
2026-04-24 08:20 25.46771 54.49481 18978 ft 397 kts 287°
2026-04-24 08:20 25.47627 54.46598 19340 ft 400 kts 287°
2026-04-24 08:21 25.48495 54.43668 19723 ft 403 kts 287°
2026-04-24 08:21 25.49369 54.40708 20089 ft 406 kts 287°
2026-04-24 08:21 25.50250 54.37722 20477 ft 409 kts 287°
2026-04-24 08:21 25.51137 54.34707 20832 ft 412 kts 287°
2026-04-24 08:22 25.52028 54.31677 21225 ft 415 kts 286°
2026-04-24 08:22 25.52923 54.28632 21606 ft 418 kts 286°
2026-04-24 08:22 25.53827 54.25554 21980 ft 421 kts 286°
2026-04-24 08:22 25.54736 54.22464 22392 ft 423 kts 286°
2026-04-24 08:23 25.55648 54.19364 22790 ft 425 kts 286°
2026-04-24 08:23 25.56564 54.16241 23151 ft 428 kts 286°
2026-04-24 08:23 25.57486 54.13089 23504 ft 431 kts 286°
2026-04-24 08:23 25.58411 54.09920 23793 ft 434 kts 286°
2026-04-24 08:24 25.59329 54.06768 24073 ft 437 kts 286°
2026-04-24 08:24 25.60268 54.03543 24348 ft 440 kts 286°
2026-04-24 08:24 25.61213 54.00294 24604 ft 444 kts 286°
2026-04-24 08:24 25.62168 53.97019 24856 ft 447 kts 286°
2026-04-24 08:25 25.63135 53.93725 25080 ft 452 kts 286°
2026-04-24 08:25 25.64120 53.90392 25240 ft 457 kts 286°
2026-04-24 08:25 25.65125 53.87021 25339 ft 464 kts 286°
2026-04-24 08:25 25.66139 53.83642 25345 ft 473 kts 286°
2026-04-24 08:26 25.67194 53.80142 25168 ft 485 kts 287°
2026-04-24 08:26 25.68285 53.76543 24687 ft 501 kts 287°
2026-04-24 08:26 25.69424 53.72795 23790 ft 522 kts 287°
2026-04-24 08:26 25.70599 53.68924 22716 ft 535 kts 287°
2026-04-24 08:27 25.71785 53.64995 21962 ft 537 kts 287°
2026-04-24 08:27 25.72950 53.61086 21779 ft 529 kts 287°
2026-04-24 08:27 25.74079 53.57232 22032 ft 520 kts 286°
2026-04-24 08:27 25.75172 53.53438 22507 ft 512 kts 286°
2026-04-24 08:28 25.76237 53.49680 22954 ft 507 kts 285°
2026-04-24 08:28 25.77266 53.45989 23174 ft 507 kts 285°
2026-04-24 08:28 25.78298 53.42225 23132 ft 512 kts 285°
2026-04-24 08:28 25.79321 53.38416 22911 ft 518 kts 284°
2026-04-24 08:29 25.80332 53.34565 22685 ft 522 kts 284°
2026-04-24 08:29 25.81323 53.30692 22568 ft 522 kts 284°
2026-04-24 08:29 25.82291 53.26813 22582 ft 520 kts 283°
2026-04-24 08:29 25.83226 53.22950 22690 ft 517 kts 283°
2026-04-24 08:30 25.84130 53.19090 22851 ft 515 kts 283°
2026-04-24 08:30 25.85004 53.15227 22963 ft 515 kts 282°
2026-04-24 08:30 25.85849 53.11368 23006 ft 515 kts 282°
2026-04-24 08:30 25.86657 53.07539 22983 ft 517 kts 282°
2026-04-24 08:31 25.87452 53.03631 22918 ft 518 kts 281°
2026-04-24 08:31 25.88218 52.99715 22871 ft 519 kts 281°
2026-04-24 08:31 25.88951 52.95797 22856 ft 518 kts 280°
2026-04-24 08:31 25.89653 52.91868 22863 ft 518 kts 279°
2026-04-24 08:32 25.90319 52.87945 22882 ft 517 kts 279°